Time,TemperatureF,DewpointF,PressureIn,WindDirection,WindDirectionDegrees,WindSpeedMPH,WindSpeedGustMPH,Humidity,HourlyPrecipIn,Conditions,Clouds,dailyrainin,SolarRadiationWatts/m^2,SoftwareType,DateUTC
2013-01-30 00:04:00,43.7,39.2,30.28,WSW,248,3.0,4.0,84,0.00,,,0.00,0.0,WeatherDisplay:10.37,2013-01-30 08:04:00,
2013-01-30 00:09:00,44.0,39.2,30.28,WSW,249,0.7,3.5,83,0.00,,,0.00,0.0,WeatherDisplay:10.37,2013-01-30 08:09:00,
2013-01-30 00:14:00,43.4,38.6,30.27,WSW,249,0.0,0.0,83,0.00,,,0.00,0.0,WeatherDisplay:10.37,2013-01-30 08:14:00,
2013-01-30 00:19:00,43.8,39.3,30.27,WSW,249,0.0,0.0,84,0.00,,,0.00,0.0,WeatherDisplay:10.37,2013-01-30 08:19:00,
2013-01-30 00:24:00,43.2,38.4,30.28,WSW,249,0.8,2.3,83,0.00,,,0.00,0.0,WeatherDisplay:10.37,2013-01-30 08:24:00,
2013-01-30 00:29:00,43.1,38.6,30.28,WSW,249,0.0,2.3,84,0.00,,,0.00,0.0,WeatherDisplay:10.37,2013-01-30 08:29:00,
2013-01-30 00:34:00,43.4,39.2,30.27,WSW,249,0.0,0.0,85,0.00,,,0.00,0.0,WeatherDisplay:10.37,2013-01-30 08:34:00,
2013-01-30 00:39:00,43.0,38.5,30.27,WSW,249,0.0,0.0,84,0.00,,,0.00,0.0,WeatherDisplay:10.37,2013-01-30 08:39:00,
2013-01-30 00:45:00,42.9,38.7,30.28,WSW,249,0.0,0.0,85,0.00,,,0.00,0.0,WeatherDisplay:10.37,2013-01-30 08:45:00,
2013-01-30 00:50:00,42.8,38.6,30.28,WSW,249,0.0,0.0,85,0.00,,,0.00,0.0,WeatherDisplay:10.37,2013-01-30 08:50:00,
2013-01-30 00:55:00,43.0,38.8,30.28,WSW,249,0.0,0.0,85,0.00,,,0.00,0.0,WeatherDisplay:10.37,2013-01-30 08:55:00,
2013-01-30 01:01:00,43.5,39.3,30.28,WSW,249,0.0,0.0,85,0.00,,,0.00,0.0,WeatherDisplay:10.37,2013-01-30 09:01:00,
2013-01-30 01:06:00,43.5,39.3,30.28,WSW,249,0.0,0.0,85,0.00,,,0.00,0.0,WeatherDisplay:10.37,2013-01-30 09:06:00,
2013-01-30 01:11:00,42.5,38.0,30.28,WSW,249,0.0,0.0,84,0.00,,,0.00,0.0,WeatherDisplay:10.37,2013-01-30 09:11:00,
2013-01-30 01:16:00,42.3,38.1,30.28,WSW,249,0.0,0.0,85,0.00,,,0.00,0.0,WeatherDisplay:10.37,2013-01-30 09:16:00,
2013-01-30 01:21:00,42.1,37.9,30.28,WSW,249,0.0,0.0,85,0.00,,,0.00,0.0,WeatherDisplay:10.37,2013-01-30 09:21:00,
2013-01-30 01:26:00,42.4,38.5,30.28,WSW,249,0.0,0.0,86,0.00,,,0.00,0.0,WeatherDisplay:10.37,2013-01-30 09:26:00,
2013-01-30 01:31:00,42.2,38.0,30.28,WSW,249,0.0,0.0,85,0.00,,,0.00,0.0,WeatherDisplay:10.37,2013-01-30 09:31:00,
2013-01-30 01:36:00,42.1,37.9,30.28,WSW,249,0.0,0.0,85,0.00,,,0.00,0.0,WeatherDisplay:10.37,2013-01-30 09:36:00,
2013-01-30 01:41:00,41.7,37.8,30.28,WSW,249,0.0,0.0,86,0.00,,,0.00,0.0,WeatherDisplay:10.37,2013-01-30 09:41:00,
2013-01-30 01:47:00,41.9,38.0,30.28,WSW,249,0.0,0.0,86,0.00,,,0.00,0.0,WeatherDisplay:10.37,2013-01-30 09:47:00,
2013-01-30 01:52:00,41.7,37.8,30.28,WSW,249,0.0,0.0,86,0.00,,,0.00,0.0,WeatherDisplay:10.37,2013-01-30 09:52:00,
2013-01-30 01:57:00,41.4,37.5,30.28,WSW,249,0.0,0.0,86,0.00,,,0.00,0.0,WeatherDisplay:10.37,2013-01-30 09:57:00,
2013-01-30 02:02:00,41.4,37.5,30.28,WSW,249,0.0,0.0,86,0.00,,,0.00,0.0,WeatherDisplay:10.37,2013-01-30 10:02:00,
2013-01-30 02:07:00,41.2,37.3,30.28,WSW,249,0.0,0.0,86,0.00,,,0.00,0.0,WeatherDisplay:10.37,2013-01-30 10:07:00,
2013-01-30 02:12:00,41.1,37.2,30.28,WSW,249,0.0,0.0,86,0.00,,,0.00,0.0,WeatherDisplay:10.37,2013-01-30 10:12:00,
2013-01-30 02:17:00,41.3,37.7,30.28,WSW,249,0.0,0.0,87,0.00,,,0.00,0.0,WeatherDisplay:10.37,2013-01-30 10:17:00,
2013-01-30 02:22:00,41.2,37.6,30.28,WSW,249,0.0,0.0,87,0.00,,,0.00,0.0,WeatherDisplay:10.37,2013-01-30 10:22:00,
2013-01-30 02:27:00,41.0,37.4,30.28,WSW,249,0.0,0.0,87,0.00,,,0.00,0.0,WeatherDisplay:10.37,2013-01-30 10:27:00,
2013-01-30 02:32:00,41.1,37.5,30.28,WSW,249,0.0,0.0,87,0.00,,,0.00,0.0,WeatherDisplay:10.37,2013-01-30 10:32:00,
2013-01-30 02:38:00,40.9,37.3,30.28,WSW,249,0.0,0.0,87,0.00,,,0.00,0.0,WeatherDisplay:10.37,2013-01-30 10:38:00,
2013-01-30 02:43:00,41.1,37.5,30.27,WSW,249,0.0,0.0,87,0.00,,,0.00,0.0,WeatherDisplay:10.37,2013-01-30 10:43:00,
2013-01-30 02:48:00,40.9,37.3,30.28,WSW,249,0.0,0.0,87,0.00,,,0.00,0.0,WeatherDisplay:10.37,2013-01-30 10:48:00,
2013-01-30 02:53:00,41.1,37.5,30.27,WSW,249,0.0,0.0,87,0.00,,,0.00,0.0,WeatherDisplay:10.37,2013-01-30 10:53:00,
2013-01-30 02:58:00,40.9,37.3,30.28,WSW,249,0.0,0.0,87,0.00,,,0.00,0.0,WeatherDisplay:10.37,2013-01-30 10:58:00,
2013-01-30 03:03:00,40.8,37.2,30.27,WSW,249,0.0,0.0,87,0.00,,,0.00,0.0,WeatherDisplay:10.37,2013-01-30 11:03:00,
2013-01-30 03:08:00,40.9,37.6,30.27,WSW,249,0.0,0.0,88,0.00,,,0.00,0.0,WeatherDisplay:10.37,2013-01-30 11:08:00,
2013-01-30 03:13:00,41.3,38.0,30.27,WSW,249,0.0,0.0,88,0.00,,,0.00,0.0,WeatherDisplay:10.37,2013-01-30 11:13:00,
2013-01-30 03:18:00,41.0,37.4,30.27,WSW,249,0.0,0.0,87,0.00,,,0.00,0.0,WeatherDisplay:10.37,2013-01-30 11:18:00,
2013-01-30 03:23:00,40.9,37.6,30.27,WSW,249,0.0,0.0,88,0.00,,,0.00,0.0,WeatherDisplay:10.37,2013-01-30 11:23:00,
2013-01-30 03:28:00,40.7,37.4,30.27,WSW,249,0.0,0.0,88,0.00,,,0.00,0.0,WeatherDisplay:10.37,2013-01-30 11:28:00,
2013-01-30 03:33:00,40.6,37.3,30.27,WSW,249,0.0,0.0,88,0.00,,,0.00,0.0,WeatherDisplay:10.37,2013-01-30 11:33:00,
2013-01-30 03:38:00,40.3,37.0,30.27,WSW,249,0.0,0.0,88,0.00,,,0.00,0.0,WeatherDisplay:10.37,2013-01-30 11:38:00,
2013-01-30 03:43:00,40.1,36.8,30.27,WSW,249,0.0,0.0,88,0.00,,,0.00,0.0,WeatherDisplay:10.37,2013-01-30 11:43:00,
2013-01-30 03:48:00,40.2,36.9,30.27,WSW,249,0.0,0.0,88,0.00,,,0.00,0.0,WeatherDisplay:10.37,2013-01-30 11:48:00,
2013-01-30 03:53:00,39.9,36.6,30.27,WSW,249,0.0,0.0,88,0.00,,,0.00,0.0,WeatherDisplay:10.37,2013-01-30 11:53:00,
2013-01-30 03:58:00,40.5,37.2,30.27,WSW,249,0.0,0.0,88,0.00,,,0.00,0.0,WeatherDisplay:10.37,2013-01-30 11:58:00,
2013-01-30 04:03:00,41.0,37.7,30.27,WSW,249,0.0,0.0,88,0.00,,,0.00,0.0,WeatherDisplay:10.37,2013-01-30 12:03:00,
2013-01-30 04:08:00,40.6,37.3,30.27,WSW,249,0.0,0.0,88,0.00,,,0.00,0.0,WeatherDisplay:10.37,2013-01-30 12:08:00,
2013-01-30 04:13:00,40.2,36.9,30.26,WSW,249,0.0,0.0,88,0.00,,,0.00,0.0,WeatherDisplay:10.37,2013-01-30 12:13:00,
2013-01-30 04:19:00,40.3,37.0,30.26,WSW,249,0.0,0.0,88,0.00,,,0.00,0.0,WeatherDisplay:10.37,2013-01-30 12:19:00,
2013-01-30 04:24:00,39.9,36.6,30.26,WSW,249,0.0,0.0,88,0.00,,,0.00,0.0,WeatherDisplay:10.37,2013-01-30 12:24:00,
2013-01-30 04:29:00,40.0,36.7,30.26,WSW,249,0.0,0.0,88,0.00,,,0.00,0.0,WeatherDisplay:10.37,2013-01-30 12:29:00,
2013-01-30 04:34:00,39.9,36.6,30.26,WSW,249,0.0,0.0,88,0.00,,,0.00,0.0,WeatherDisplay:10.37,2013-01-30 12:34:00,
2013-01-30 04:40:00,39.7,36.4,30.26,WSW,249,0.0,0.0,88,0.00,,,0.00,0.0,WeatherDisplay:10.37,2013-01-30 12:40:00,
2013-01-30 04:45:00,39.7,36.4,30.26,WSW,249,0.0,0.0,88,0.00,,,0.00,0.0,WeatherDisplay:10.37,2013-01-30 12:45:00,
2013-01-30 04:50:00,39.6,36.3,30.26,WSW,249,0.0,0.0,88,0.00,,,0.00,0.0,WeatherDisplay:10.37,2013-01-30 12:50:00,
2013-01-30 04:55:00,39.5,36.2,30.26,WSW,249,0.0,0.0,88,0.00,,,0.00,0.0,WeatherDisplay:10.37,2013-01-30 12:55:00,
2013-01-30 05:00:00,39.4,36.1,30.26,WSW,249,0.0,0.0,88,0.00,,,0.00,0.0,WeatherDisplay:10.37,2013-01-30 13:00:00,
2013-01-30 05:05:00,40.0,37.0,30.26,WSW,249,0.0,0.0,89,0.00,,,0.00,0.0,WeatherDisplay:10.37,2013-01-30 13:05:00,
2013-01-30 05:10:00,39.9,36.9,30.27,WSW,249,0.0,0.0,89,0.00,,,0.00,0.0,WeatherDisplay:10.37,2013-01-30 13:10:00,
2013-01-30 05:15:00,39.5,36.2,30.27,WSW,249,0.0,0.0,88,0.00,,,0.00,0.0,WeatherDisplay:10.37,2013-01-30 13:15:00,
2013-01-30 05:21:00,39.3,36.0,30.27,WSW,249,0.0,0.0,88,0.00,,,0.00,0.0,WeatherDisplay:10.37,2013-01-30 13:21:00,
2013-01-30 05:26:00,39.5,36.5,30.27,WSW,249,0.0,0.0,89,0.00,,,0.00,0.0,WeatherDisplay:10.37,2013-01-30 13:26:00,
2013-01-30 05:31:00,39.4,36.1,30.27,WSW,249,0.0,0.0,88,0.00,,,0.00,0.0,WeatherDisplay:10.37,2013-01-30 13:31:00,
2013-01-30 05:36:00,39.1,36.1,30.27,WSW,249,0.2,0.0,89,0.00,,,0.00,0.0,WeatherDisplay:10.37,2013-01-30 13:36:00,
2013-01-30 05:41:00,39.0,36.0,30.27,WSW,249,0.0,0.0,89,0.00,,,0.00,0.0,WeatherDisplay:10.37,2013-01-30 13:41:00,
2013-01-30 05:46:00,39.2,36.2,30.27,WSW,249,0.0,0.0,89,0.00,,,0.00,0.0,WeatherDisplay:10.37,2013-01-30 13:46:00,
2013-01-30 05:51:00,39.9,36.9,30.27,WSW,249,0.0,0.0,89,0.00,,,0.00,0.0,WeatherDisplay:10.37,2013-01-30 13:51:00,
2013-01-30 05:56:00,39.4,36.4,30.27,WSW,249,0.0,0.0,89,0.00,,,0.00,0.0,WeatherDisplay:10.37,2013-01-30 13:56:00,
2013-01-30 06:01:00,39.4,36.4,30.27,WSW,249,0.0,0.0,89,0.00,,,0.00,0.0,WeatherDisplay:10.37,2013-01-30 14:01:00,
2013-01-30 06:06:00,39.2,36.2,30.27,WSW,249,0.0,1.0,89,0.00,,,0.00,0.0,WeatherDisplay:10.37,2013-01-30 14:06:00,
2013-01-30 06:11:00,39.0,36.0,30.27,WSW,249,0.0,0.0,89,0.00,,,0.00,0.0,WeatherDisplay:10.37,2013-01-30 14:11:00,
2013-01-30 06:16:00,39.2,36.2,30.28,WSW,249,0.0,0.0,89,0.00,,,0.00,0.0,WeatherDisplay:10.37,2013-01-30 14:16:00,
2013-01-30 06:21:00,39.0,36.0,30.28,WSW,249,0.0,0.0,89,0.00,,,0.00,0.0,WeatherDisplay:10.37,2013-01-30 14:21:00,
2013-01-30 06:26:00,38.8,35.8,30.28,WSW,249,0.0,0.0,89,0.00,,,0.00,0.0,WeatherDisplay:10.37,2013-01-30 14:26:00,
2013-01-30 06:31:00,38.8,35.8,30.28,WSW,249,0.0,0.0,89,0.00,,,0.00,0.0,WeatherDisplay:10.37,2013-01-30 14:31:00,
2013-01-30 06:37:00,38.7,35.7,30.29,WSW,249,0.0,0.0,89,0.00,,,0.00,0.0,WeatherDisplay:10.37,2013-01-30 14:37:00,
2013-01-30 06:42:00,38.6,35.6,30.29,WSW,249,0.0,0.0,89,0.00,,,0.00,0.0,WeatherDisplay:10.37,2013-01-30 14:42:00,
2013-01-30 06:47:00,38.6,35.6,30.29,WSW,249,0.0,0.0,89,0.00,,,0.00,0.0,WeatherDisplay:10.37,2013-01-30 14:47:00,
2013-01-30 06:52:00,38.6,35.6,30.29,WSW,249,0.0,1.1,89,0.00,,,0.00,0.0,WeatherDisplay:10.37,2013-01-30 14:52:00,
2013-01-30 06:57:00,38.4,35.4,30.29,WSW,249,0.0,0.0,89,0.00,,,0.00,0.0,WeatherDisplay:10.37,2013-01-30 14:57:00,
2013-01-30 07:02:00,38.5,35.5,30.30,WSW,249,0.0,0.0,89,0.00,,,0.00,0.0,WeatherDisplay:10.37,2013-01-30 15:02:00,
2013-01-30 07:07:00,38.6,35.6,30.30,WSW,249,0.0,0.0,89,0.00,,,0.00,0.0,WeatherDisplay:10.37,2013-01-30 15:07:00,
2013-01-30 07:12:00,38.6,35.6,30.30,WSW,249,0.0,0.0,89,0.00,,,0.00,0.0,WeatherDisplay:10.37,2013-01-30 15:12:00,
2013-01-30 07:17:00,38.5,35.5,30.30,WSW,249,0.0,0.0,89,0.00,,,0.00,5.0,WeatherDisplay:10.37,2013-01-30 15:17:00,
2013-01-30 07:22:00,38.4,35.4,30.30,WSW,249,0.0,0.0,89,0.00,,,0.00,7.0,WeatherDisplay:10.37,2013-01-30 15:22:00,
2013-01-30 07:27:00,38.5,35.5,30.30,WSW,249,0.0,0.0,89,0.00,CLR,,0.00,11.0,WeatherDisplay:10.37,2013-01-30 15:27:00,
2013-01-30 07:32:00,38.7,35.7,30.30,WSW,249,0.3,0.0,89,0.00,SCT,,0.00,14.0,WeatherDisplay:10.37,2013-01-30 15:32:00,
2013-01-30 07:37:00,38.8,35.8,30.31,WSW,249,0.0,0.0,89,0.00,SCT,,0.00,19.0,WeatherDisplay:10.37,2013-01-30 15:37:00,
2013-01-30 07:42:00,38.8,35.8,30.30,WSW,249,0.0,0.0,89,0.00,BKN,,0.00,19.0,WeatherDisplay:10.37,2013-01-30 15:42:00,
2013-01-30 07:47:00,39.1,36.1,30.31,WSW,249,0.0,0.0,89,0.00,SCT,,0.00,25.0,WeatherDisplay:10.37,2013-01-30 15:47:00,
2013-01-30 07:52:00,39.6,36.9,30.31,WSW,249,0.0,0.0,90,0.00,BKN,,0.00,25.0,WeatherDisplay:10.37,2013-01-30 15:52:00,
2013-01-30 07:57:00,39.9,36.9,30.31,WSW,249,0.0,0.0,89,0.00,FEW,,0.00,56.0,WeatherDisplay:10.37,2013-01-30 15:57:00,
2013-01-30 08:02:00,40.4,37.7,30.31,WSW,249,0.0,2.3,90,0.00,FEW,,0.00,69.0,WeatherDisplay:10.37,2013-01-30 16:02:00,
2013-01-30 08:07:00,40.8,37.8,30.31,WSW,249,0.0,0.0,89,0.00,BKN,,0.00,35.0,WeatherDisplay:10.37,2013-01-30 16:07:00,
2013-01-30 08:12:00,41.1,38.4,30.31,WSW,249,0.0,0.0,90,0.00,CLR,,0.00,125.0,WeatherDisplay:10.37,2013-01-30 16:12:00,
2013-01-30 08:17:00,41.8,39.1,30.31,WSW,249,0.0,0.0,90,0.00,CLR,,0.00,144.0,WeatherDisplay:10.37,2013-01-30 16:17:00,
2013-01-30 08:22:00,42.1,39.1,30.31,WSW,249,0.0,0.0,89,0.00,CLR,,0.00,162.0,WeatherDisplay:10.37,2013-01-30 16:22:00,
2013-01-30 08:27:00,42.6,39.6,30.31,WSW,249,0.0,0.0,89,0.00,CLR,,0.00,178.0,WeatherDisplay:10.37,2013-01-30 16:27:00,
2013-01-30 08:32:00,43.2,40.2,30.31,WSW,249,0.0,0.0,89,0.00,CLR,,0.00,195.0,WeatherDisplay:10.37,2013-01-30 16:32:00,
2013-01-30 08:37:00,44.3,41.3,30.31,WSW,249,0.0,0.0,89,0.00,CLR,,0.00,218.0,WeatherDisplay:10.37,2013-01-30 16:37:00,
2013-01-30 08:42:00,44.5,41.2,30.31,WSW,249,0.0,0.0,88,0.00,CLR,,0.00,236.0,WeatherDisplay:10.37,2013-01-30 16:42:00,
2013-01-30 08:47:00,45.4,42.1,30.31,WSW,249,0.0,1.1,88,0.00,CLR,,0.00,253.0,WeatherDisplay:10.37,2013-01-30 16:47:00,
2013-01-30 08:52:00,45.8,41.9,30.32,WSW,249,0.0,0.0,86,0.00,CLR,,0.00,267.0,WeatherDisplay:10.37,2013-01-30 16:52:00,
2013-01-30 08:57:00,46.5,42.2,30.31,WSW,249,0.0,0.0,85,0.00,CLR,,0.00,278.0,WeatherDisplay:10.37,2013-01-30 16:57:00,
2013-01-30 09:02:00,47.4,42.5,30.32,WSW,249,0.0,0.0,83,0.00,CLR,,0.00,295.0,WeatherDisplay:10.37,2013-01-30 17:02:00,
2013-01-30 09:07:00,48.1,42.9,30.32,WSW,249,0.0,0.0,82,0.00,CLR,,0.00,311.0,WeatherDisplay:10.37,2013-01-30 17:07:00,
2013-01-30 09:12:00,48.9,43.0,30.32,WSW,249,0.2,1.1,80,0.00,CLR,,0.00,323.0,WeatherDisplay:10.37,2013-01-30 17:12:00,
2013-01-30 09:17:00,50.2,43.6,30.32,WSW,249,0.0,0.0,78,0.00,CLR,,0.00,338.0,WeatherDisplay:10.37,2013-01-30 17:17:00,
2013-01-30 09:22:00,51.1,43.8,30.32,WSW,249,0.2,1.1,76,0.00,CLR,,0.00,353.0,WeatherDisplay:10.37,2013-01-30 17:22:00,
2013-01-30 09:27:00,51.9,43.9,30.32,WSW,249,0.0,0.0,74,0.00,CLR,,0.00,366.0,WeatherDisplay:10.37,2013-01-30 17:27:00,
2013-01-30 09:32:00,51.8,42.7,30.32,WSW,249,0.0,1.1,71,0.00,CLR,,0.00,381.0,WeatherDisplay:10.37,2013-01-30 17:32:00,
2013-01-30 09:37:00,52.3,43.9,30.32,WSW,249,0.0,0.0,73,0.00,CLR,,0.00,397.0,WeatherDisplay:10.37,2013-01-30 17:37:00,
2013-01-30 09:42:00,52.3,42.8,30.32,WSW,249,0.0,0.0,70,0.00,CLR,,0.00,410.0,WeatherDisplay:10.37,2013-01-30 17:42:00,
2013-01-30 09:47:00,52.9,42.6,30.32,WSW,249,0.0,1.1,68,0.00,CLR,,0.00,422.0,WeatherDisplay:10.37,2013-01-30 17:47:00,
2013-01-30 09:52:00,53.8,43.9,30.32,WSW,249,0.1,1.1,69,0.00,CLR,,0.00,441.0,WeatherDisplay:10.37,2013-01-30 17:52:00,
2013-01-30 09:57:00,54.9,43.7,30.32,WSW,249,0.8,2.3,66,0.00,CLR,,0.00,452.0,WeatherDisplay:10.37,2013-01-30 17:57:00,
2013-01-30 10:02:00,54.8,43.7,30.32,SW,216,1.2,3.5,66,0.00,CLR,,0.00,466.0,WeatherDisplay:10.37,2013-01-30 18:02:00,
2013-01-30 10:07:00,54.4,42.9,30.32,SSW,207,1.9,3.5,65,0.00,CLR,,0.00,478.0,WeatherDisplay:10.37,2013-01-30 18:07:00,
2013-01-30 10:12:00,54.0,42.5,30.32,SSW,207,0.0,2.3,65,0.00,CLR,,0.00,489.0,WeatherDisplay:10.37,2013-01-30 18:12:00,
2013-01-30 10:17:00,54.3,43.6,30.32,SSW,203,0.1,1.1,67,0.00,CLR,,0.00,499.0,WeatherDisplay:10.37,2013-01-30 18:17:00,
2013-01-30 10:22:00,55.0,43.4,30.32,SSW,203,0.3,2.3,65,0.00,CLR,,0.00,512.0,WeatherDisplay:10.37,2013-01-30 18:22:00,
2013-01-30 10:27:00,55.8,43.0,30.32,SSW,192,0.2,1.1,62,0.00,CLR,,0.00,522.0,WeatherDisplay:10.37,2013-01-30 18:27:00,
2013-01-30 10:32:00,56.2,42.1,30.32,South,186,1.4,3.5,59,0.00,CLR,,0.00,534.0,WeatherDisplay:10.37,2013-01-30 18:32:00,
2013-01-30 10:37:00,54.8,41.2,30.32,South,186,1.6,3.5,60,0.00,CLR,,0.00,545.0,WeatherDisplay:10.37,2013-01-30 18:37:00,
2013-01-30 10:42:00,54.9,42.1,30.33,South,186,0.0,2.3,62,0.00,CLR,,0.00,554.0,WeatherDisplay:10.37,2013-01-30 18:42:00,
2013-01-30 10:47:00,56.1,42.8,30.33,South,184,0.1,0.0,61,0.00,CLR,,0.00,564.0,WeatherDisplay:10.37,2013-01-30 18:47:00,
2013-01-30 10:52:00,57.0,42.8,30.32,South,184,0.3,1.1,59,0.00,CLR,,0.00,571.0,WeatherDisplay:10.37,2013-01-30 18:52:00,
2013-01-30 10:57:00,57.0,42.8,30.32,South,184,0.7,1.1,59,0.00,CLR,,0.00,578.0,WeatherDisplay:10.37,2013-01-30 18:57:00,
2013-01-30 11:02:00,56.5,42.3,30.32,South,182,0.7,3.5,59,0.00,CLR,,0.00,587.0,WeatherDisplay:10.37,2013-01-30 19:02:00,
2013-01-30 11:07:00,57.0,42.8,30.32,South,173,2.3,3.5,59,0.00,CLR,,0.00,591.0,WeatherDisplay:10.37,2013-01-30 19:07:00,
2013-01-30 11:12:00,57.2,43.0,30.32,SSE,166,1.5,2.0,59,0.00,CLR,,0.00,601.0,WeatherDisplay:10.37,2013-01-30 19:12:00,
2013-01-30 11:17:00,57.1,42.5,30.32,SSE,165,0.2,2.0,58,0.00,CLR,,0.00,606.0,WeatherDisplay:10.37,2013-01-30 19:17:00,
2013-01-30 11:22:00,58.4,43.7,30.32,SSE,165,0.9,2.3,58,0.00,CLR,,0.00,612.0,WeatherDisplay:10.37,2013-01-30 19:22:00,
2013-01-30 11:27:00,59.0,43.8,30.31,SSE,164,2.4,3.5,57,0.00,CLR,,0.00,619.0,WeatherDisplay:10.37,2013-01-30 19:27:00,
2013-01-30 11:32:00,59.3,43.6,30.31,SSE,163,0.7,0.0,56,0.00,CLR,,0.00,624.0,WeatherDisplay:10.37,2013-01-30 19:32:00,
2013-01-30 11:37:00,58.9,43.2,30.31,SSE,163,0.5,2.3,56,0.00,CLR,,0.00,628.0,WeatherDisplay:10.37,2013-01-30 19:37:00,
2013-01-30 11:42:00,59.5,43.8,30.30,SSE,163,0.4,3.5,56,0.00,CLR,,0.00,635.0,WeatherDisplay:10.37,2013-01-30 19:42:00,
2013-01-30 11:47:00,60.6,44.3,30.30,SSE,163,0.1,3.5,55,0.00,CLR,,0.00,638.0,WeatherDisplay:10.37,2013-01-30 19:47:00,
2013-01-30 11:52:00,60.5,43.8,30.30,SSE,163,0.5,2.3,54,0.00,CLR,,0.00,640.0,WeatherDisplay:10.37,2013-01-30 19:52:00,
2013-01-30 11:57:00,60.8,44.5,30.30,SSE,163,0.6,2.3,55,0.00,CLR,,0.00,643.0,WeatherDisplay:10.37,2013-01-30 19:57:00,
2013-01-30 12:02:00,61.1,44.3,30.29,SE,136,1.7,3.5,54,0.00,CLR,,0.00,645.0,WeatherDisplay:10.37,2013-01-30 20:02:00,
2013-01-30 12:07:00,61.9,44.6,30.29,SE,136,0.1,1.1,53,0.00,CLR,,0.00,647.0,WeatherDisplay:10.37,2013-01-30 20:07:00,
2013-01-30 12:12:00,61.5,42.7,30.28,SE,136,1.4,3.5,50,0.00,CLR,,0.00,650.0,WeatherDisplay:10.37,2013-01-30 20:12:00,
2013-01-30 12:17:00,61.6,41.7,30.28,SE,136,0.9,2.3,48,0.00,CLR,,0.00,650.0,WeatherDisplay:10.37,2013-01-30 20:17:00,
2013-01-30 12:22:00,61.3,40.9,30.28,SE,136,0.4,3.5,47,0.00,CLR,,0.00,654.0,WeatherDisplay:10.37,2013-01-30 20:22:00,
2013-01-30 12:27:00,62.1,41.1,30.28,SE,136,1.0,3.5,46,0.00,CLR,,0.00,652.0,WeatherDisplay:10.37,2013-01-30 20:27:00,
2013-01-30 12:32:00,62.5,41.4,30.28,ESE,123,1.2,3.5,46,0.00,CLR,,0.00,649.0,WeatherDisplay:10.37,2013-01-30 20:32:00,
2013-01-30 12:37:00,62.8,41.7,30.28,ESE,121,2.0,3.5,46,0.00,CLR,,0.00,652.0,WeatherDisplay:10.37,2013-01-30 20:37:00,
2013-01-30 12:42:00,63.2,42.6,30.28,ESE,109,1.8,3.5,47,0.00,CLR,,0.00,650.0,WeatherDisplay:10.37,2013-01-30 20:42:00,
2013-01-30 12:47:00,63.2,42.6,30.28,ESE,106,0.7,3.5,47,0.00,CLR,,0.00,647.0,WeatherDisplay:10.37,2013-01-30 20:47:00,
2013-01-30 12:52:00,63.6,41.9,30.27,ESE,106,0.7,3.5,45,0.00,CLR,,0.00,645.0,WeatherDisplay:10.37,2013-01-30 20:52:00,
2013-01-30 12:57:00,64.0,42.8,30.27,ESE,103,2.2,3.5,46,0.00,CLR,,0.00,643.0,WeatherDisplay:10.37,2013-01-30 20:57:00,
2013-01-30 13:02:00,64.1,43.4,30.27,ESE,103,0.9,1.1,47,0.00,CLR,,0.00,642.0,WeatherDisplay:10.37,2013-01-30 21:02:00,
2013-01-30 13:07:00,63.6,42.4,30.27,East,81,2.4,5.8,46,0.00,CLR,,0.00,636.0,WeatherDisplay:10.37,2013-01-30 21:07:00,
2013-01-30 13:12:00,63.6,42.4,30.27,NE,46,1.7,3.5,46,0.00,CLR,,0.00,633.0,WeatherDisplay:10.37,2013-01-30 21:12:00,
2013-01-30 13:17:00,63.4,42.8,30.26,NE,48,2.8,3.5,47,0.00,CLR,,0.00,626.0,WeatherDisplay:10.37,2013-01-30 21:17:00,
2013-01-30 13:22:00,63.6,43.0,30.26,NE,48,0.9,1.1,47,0.00,CLR,,0.00,622.0,WeatherDisplay:10.37,2013-01-30 21:22:00,
2013-01-30 13:27:00,63.6,41.9,30.26,NE,48,2.3,3.5,45,0.00,CLR,,0.00,621.0,WeatherDisplay:10.37,2013-01-30 21:27:00,
2013-01-30 13:32:00,64.2,43.0,30.26,NE,48,0.8,2.3,46,0.00,CLR,,0.00,617.0,WeatherDisplay:10.37,2013-01-30 21:32:00,
2013-01-30 13:37:00,63.7,41.9,30.25,NE,48,1.2,3.5,45,0.00,CLR,,0.00,613.0,WeatherDisplay:10.37,2013-01-30 21:37:00,
2013-01-30 13:42:00,63.3,42.7,30.25,NE,48,0.6,2.3,47,0.00,CLR,,0.00,606.0,WeatherDisplay:10.37,2013-01-30 21:42:00,
2013-01-30 13:47:00,62.7,42.2,30.25,NE,48,1.4,3.5,47,0.00,CLR,,0.00,599.0,WeatherDisplay:10.37,2013-01-30 21:47:00,
2013-01-30 13:52:00,63.2,42.6,30.25,NE,48,0.7,2.3,47,0.00,CLR,,0.00,589.0,WeatherDisplay:10.37,2013-01-30 21:52:00,
2013-01-30 13:57:00,63.3,43.8,30.25,NE,48,0.1,2.3,49,0.00,CLR,,0.00,580.0,WeatherDisplay:10.37,2013-01-30 21:57:00,
2013-01-30 14:02:00,63.4,42.8,30.25,NE,48,0.6,1.1,47,0.00,CLR,,0.00,570.0,WeatherDisplay:10.37,2013-01-30 22:02:00,
2013-01-30 14:07:00,62.8,43.3,30.25,NE,48,1.0,3.5,49,0.00,CLR,,0.00,561.0,WeatherDisplay:10.37,2013-01-30 22:07:00,
2013-01-30 14:12:00,62.8,43.3,30.25,NE,48,0.9,2.3,49,0.00,CLR,,0.00,550.0,WeatherDisplay:10.37,2013-01-30 22:12:00,
2013-01-30 14:17:00,62.7,43.8,30.24,NE,48,0.8,2.3,50,0.00,CLR,,0.00,540.0,WeatherDisplay:10.37,2013-01-30 22:17:00,
2013-01-30 14:22:00,63.7,44.2,30.24,NE,48,2.4,3.5,49,0.00,CLR,,0.00,529.0,WeatherDisplay:10.37,2013-01-30 22:22:00,
2013-01-30 14:27:00,63.4,43.9,30.24,NE,48,1.9,3.5,49,0.00,CLR,,0.00,517.0,WeatherDisplay:10.37,2013-01-30 22:27:00,
2013-01-30 14:32:00,63.4,43.9,30.24,NE,48,0.7,2.3,49,0.00,CLR,,0.00,504.0,WeatherDisplay:10.37,2013-01-30 22:32:00,
2013-01-30 14:37:00,63.6,44.6,30.24,NE,48,0.0,2.3,50,0.00,CLR,,0.00,496.0,WeatherDisplay:10.37,2013-01-30 22:37:00,
2013-01-30 14:42:00,63.8,44.8,30.24,NE,48,0.7,2.3,50,0.00,CLR,,0.00,480.0,WeatherDisplay:10.37,2013-01-30 22:42:00,
2013-01-30 14:47:00,64.2,45.7,30.24,NE,48,0.8,2.3,51,0.00,CLR,,0.00,468.0,WeatherDisplay:10.37,2013-01-30 22:47:00,
2013-01-30 14:52:00,63.9,45.4,30.24,NE,48,0.9,1.1,51,0.00,CLR,,0.00,461.0,WeatherDisplay:10.37,2013-01-30 22:52:00,
2013-01-30 14:57:00,63.4,44.4,30.24,ESE,102,3.3,6.9,50,0.00,CLR,,0.00,452.0,WeatherDisplay:10.37,2013-01-30 22:57:00,
2013-01-30 15:02:00,63.1,43.6,30.24,SE,128,4.3,6.9,49,0.00,CLR,,0.00,436.0,WeatherDisplay:10.37,2013-01-30 23:02:00,
2013-01-30 15:07:00,63.2,43.7,30.24,SE,129,3.6,4.6,49,0.00,CLR,,0.00,417.0,WeatherDisplay:10.37,2013-01-30 23:07:00,
2013-01-30 15:12:00,63.0,43.5,30.24,South,183,2.6,6.0,49,0.00,CLR,,0.00,346.0,WeatherDisplay:10.37,2013-01-30 23:12:00,
2013-01-30 15:17:00,63.0,43.5,30.24,South,172,2.4,3.5,49,0.00,CLR,,0.00,271.0,WeatherDisplay:10.37,2013-01-30 23:17:00,
2013-01-30 15:22:00,63.0,43.5,30.24,South,171,3.1,4.6,49,0.00,CLR,,0.00,283.0,WeatherDisplay:10.37,2013-01-30 23:22:00,
2013-01-30 15:27:00,62.6,43.2,30.23,SSE,153,3.4,3.5,49,0.00,CLR,,0.00,292.0,WeatherDisplay:10.37,2013-01-30 23:27:00,
2013-01-30 15:32:00,62.7,43.8,30.23,SSE,156,1.7,3.5,50,0.00,SCT,,0.00,174.0,WeatherDisplay:10.37,2013-01-30 23:32:00,
2013-01-30 15:37:00,62.8,43.3,30.23,SSE,163,2.2,4.6,49,0.00,SCT,,0.00,113.0,WeatherDisplay:10.37,2013-01-30 23:37:00,
2013-01-30 15:42:00,62.5,43.6,30.23,SSE,164,3.4,3.5,50,0.00,SCT,,0.00,135.0,WeatherDisplay:10.37,2013-01-30 23:42:00,
2013-01-30 15:47:00,62.6,43.2,30.23,SSE,164,2.0,3.5,49,0.00,BKN,,0.00,83.0,WeatherDisplay:10.37,2013-01-30 23:47:00,
2013-01-30 15:52:00,62.8,43.3,30.23,SSE,165,4.2,4.6,49,0.00,CLR,,0.00,206.0,WeatherDisplay:10.37,2013-01-30 23:52:00,
2013-01-30 15:57:00,62.7,43.3,30.23,SSE,165,1.2,3.5,49,0.00,SCT,,0.00,69.0,WeatherDisplay:10.37,2013-01-30 23:57:00,
2013-01-30 16:02:00,62.4,43.0,30.23,SSE,165,2.8,3.5,49,0.00,BKN,,0.00,77.0,WeatherDisplay:10.37,2013-01-31 00:02:00,
2013-01-30 16:07:00,62.0,43.1,30.23,SSE,165,1.7,3.5,50,0.00,BKN,,0.00,53.0,WeatherDisplay:10.37,2013-01-31 00:07:00,
2013-01-30 16:12:00,61.9,42.5,30.24,SSE,164,2.3,3.5,49,0.00,BKN,,0.00,49.0,WeatherDisplay:10.37,2013-01-31 00:12:00,
2013-01-30 16:17:00,61.6,42.2,30.24,SSE,164,1.5,3.5,49,0.00,BKN,,0.00,46.0,WeatherDisplay:10.37,2013-01-31 00:17:00,
2013-01-30 16:22:00,61.3,42.5,30.24,SSE,165,0.6,2.3,50,0.00,BKN,,0.00,26.0,WeatherDisplay:10.37,2013-01-31 00:22:00,
2013-01-30 16:27:00,61.1,42.3,30.24,SSE,165,1.1,3.5,50,0.00,BKN,,0.00,25.0,WeatherDisplay:10.37,2013-01-31 00:27:00,
2013-01-30 16:32:00,61.0,42.2,30.24,SSE,165,1.0,3.5,50,0.00,BKN,,0.00,23.0,WeatherDisplay:10.37,2013-01-31 00:32:00,
2013-01-30 16:37:00,60.7,42.5,30.24,SSE,164,0.2,2.3,51,0.00,BKN,,0.00,23.0,WeatherDisplay:10.37,2013-01-31 00:37:00,
2013-01-30 16:42:00,60.6,42.9,30.23,SSE,165,1.5,3.5,52,0.00,BKN,,0.00,21.0,WeatherDisplay:10.37,2013-01-31 00:42:00,
2013-01-30 16:47:00,60.3,42.6,30.23,SSE,165,0.4,1.1,52,0.00,BKN,,0.00,21.0,WeatherDisplay:10.37,2013-01-31 00:47:00,
2013-01-30 16:52:00,59.5,42.3,30.24,SSE,164,0.3,2.3,53,0.00,BKN,,0.00,19.0,WeatherDisplay:10.37,2013-01-31 00:52:00,
2013-01-30 16:57:00,59.2,42.1,30.24,SSE,165,0.0,0.0,53,0.00,BKN,,0.00,16.0,WeatherDisplay:10.37,2013-01-31 00:57:00,
2013-01-30 17:02:00,58.9,43.2,30.24,SSE,164,0.0,0.0,56,0.00,BKN,,0.00,14.0,WeatherDisplay:10.37,2013-01-31 01:02:00,
2013-01-30 17:07:00,58.5,41.9,30.24,SSE,164,0.5,2.3,54,0.00,BKN,,0.00,12.0,WeatherDisplay:10.37,2013-01-31 01:07:00,
2013-01-30 17:12:00,58.4,41.8,30.24,SSE,164,0.9,1.1,54,0.00,BKN,,0.00,11.0,WeatherDisplay:10.37,2013-01-31 01:12:00,
2013-01-30 17:17:00,58.1,42.0,30.24,SSE,164,0.0,0.0,55,0.00,SCT,,0.00,11.0,WeatherDisplay:10.37,2013-01-31 01:17:00,
2013-01-30 17:22:00,57.1,42.9,30.24,SSE,165,0.0,0.0,59,0.00,CLR,,0.00,7.0,WeatherDisplay:10.37,2013-01-31 01:22:00,
2013-01-30 17:27:00,56.3,43.0,30.24,SSE,165,0.0,0.0,61,0.00,,,0.00,5.0,WeatherDisplay:10.37,2013-01-31 01:27:00,
2013-01-30 17:32:00,55.9,42.6,30.24,SSE,164,0.0,0.0,61,0.00,,,0.00,5.0,WeatherDisplay:10.37,2013-01-31 01:32:00,
2013-01-30 17:37:00,55.6,41.9,30.24,SSE,165,0.0,0.0,60,0.00,,,0.00,0.0,WeatherDisplay:10.37,2013-01-31 01:37:00,
2013-01-30 17:42:00,55.0,42.2,30.24,SSE,165,0.0,0.0,62,0.00,,,0.00,0.0,WeatherDisplay:10.37,2013-01-31 01:42:00,
2013-01-30 17:47:00,54.5,42.2,30.24,SSE,165,0.0,0.0,63,0.00,,,0.00,0.0,WeatherDisplay:10.37,2013-01-31 01:47:00,
2013-01-30 17:52:00,54.0,42.1,30.24,SSE,165,0.0,0.0,64,0.00,,,0.00,0.0,WeatherDisplay:10.37,2013-01-31 01:52:00,
2013-01-30 17:57:00,53.6,42.1,30.24,SSE,165,0.0,0.0,65,0.00,,,0.00,0.0,WeatherDisplay:10.37,2013-01-31 01:57:00,
2013-01-30 18:02:00,53.1,42.4,30.24,SSE,164,0.0,0.0,67,0.00,,,0.00,0.0,WeatherDisplay:10.37,2013-01-31 02:02:00,
2013-01-30 18:07:00,52.5,42.2,30.24,SSE,164,0.0,0.0,68,0.00,,,0.00,0.0,WeatherDisplay:10.37,2013-01-31 02:07:00,
2013-01-30 18:12:00,51.9,42.0,30.24,SSE,165,0.0,0.0,69,0.00,,,0.00,0.0,WeatherDisplay:10.37,2013-01-31 02:12:00,
2013-01-30 18:17:00,51.6,42.1,30.24,SSE,165,0.0,0.0,70,0.00,,,0.00,0.0,WeatherDisplay:10.37,2013-01-31 02:17:00,
2013-01-30 18:22:00,51.0,41.9,30.24,SSE,164,0.0,0.0,71,0.00,,,0.00,0.0,WeatherDisplay:10.37,2013-01-31 02:22:00,
2013-01-30 18:27:00,50.9,41.8,30.24,SSE,165,0.0,0.0,71,0.00,,,0.00,0.0,WeatherDisplay:10.37,2013-01-31 02:27:00,
2013-01-30 18:32:00,50.8,42.1,30.24,SSE,164,0.0,0.0,72,0.00,,,0.00,0.0,WeatherDisplay:10.37,2013-01-31 02:32:00,
2013-01-30 18:37:00,50.7,42.0,30.24,SSE,165,0.0,0.0,72,0.00,,,0.00,0.0,WeatherDisplay:10.37,2013-01-31 02:37:00,
2013-01-30 18:42:00,50.4,42.1,30.24,SSE,164,0.5,1.1,73,0.00,,,0.00,0.0,WeatherDisplay:10.37,2013-01-31 02:42:00,
2013-01-30 18:47:00,50.4,42.1,30.24,SSE,165,0.0,0.0,73,0.00,,,0.00,0.0,WeatherDisplay:10.37,2013-01-31 02:47:00,
2013-01-30 18:52:00,50.3,42.0,30.24,SSE,165,0.0,0.0,73,0.00,,,0.00,0.0,WeatherDisplay:10.37,2013-01-31 02:52:00,
2013-01-30 18:57:00,50.1,42.1,30.24,SSE,164,0.0,0.0,74,0.00,,,0.00,0.0,WeatherDisplay:10.37,2013-01-31 02:57:00,
2013-01-30 19:02:00,49.8,42.2,30.24,SSE,165,0.0,0.0,75,0.00,,,0.00,0.0,WeatherDisplay:10.37,2013-01-31 03:02:00,
2013-01-30 19:07:00,49.4,41.8,30.24,SSE,165,0.0,0.0,75,0.00,,,0.00,0.0,WeatherDisplay:10.37,2013-01-31 03:07:00,
2013-01-30 19:12:00,49.2,42.0,30.25,SSE,164,0.0,0.0,76,0.00,,,0.00,0.0,WeatherDisplay:10.37,2013-01-31 03:12:00,
2013-01-30 19:17:00,49.2,42.3,30.25,SSE,165,0.0,0.0,77,0.00,,,0.00,0.0,WeatherDisplay:10.37,2013-01-31 03:17:00,
2013-01-30 19:22:00,49.0,42.1,30.25,SSE,165,0.0,0.0,77,0.00,,,0.00,0.0,WeatherDisplay:10.37,2013-01-31 03:22:00,
2013-01-30 19:27:00,48.7,41.8,30.25,SSE,165,0.0,0.0,77,0.00,,,0.00,0.0,WeatherDisplay:10.37,2013-01-31 03:27:00,
2013-01-30 19:32:00,48.6,41.7,30.25,SSE,165,0.0,0.0,77,0.00,,,0.00,0.0,WeatherDisplay:10.37,2013-01-31 03:32:00,
2013-01-30 19:37:00,48.5,42.0,30.25,SSE,165,0.0,0.0,78,0.00,,,0.00,0.0,WeatherDisplay:10.37,2013-01-31 03:37:00,
2013-01-30 19:42:00,48.2,41.7,30.25,SSE,164,0.0,0.0,78,0.00,,,0.00,0.0,WeatherDisplay:10.37,2013-01-31 03:42:00,
2013-01-30 19:47:00,47.9,41.4,30.25,SSE,165,0.0,0.0,78,0.00,,,0.00,0.0,WeatherDisplay:10.37,2013-01-31 03:47:00,
2013-01-30 19:52:00,47.5,41.3,30.25,SSE,165,0.0,0.0,79,0.00,,,0.00,0.0,WeatherDisplay:10.37,2013-01-31 03:52:00,
2013-01-30 19:57:00,47.6,41.7,30.25,SSE,165,0.0,0.0,80,0.00,,,0.00,0.0,WeatherDisplay:10.37,2013-01-31 03:57:00,
2013-01-30 20:02:00,47.9,42.0,30.25,SSE,165,0.0,0.0,80,0.00,,,0.00,0.0,WeatherDisplay:10.37,2013-01-31 04:02:00,
2013-01-30 20:07:00,47.8,41.6,30.25,SSE,164,0.0,0.0,79,0.00,,,0.00,0.0,WeatherDisplay:10.37,2013-01-31 04:07:00,
2013-01-30 20:12:00,47.6,41.4,30.25,SSE,164,0.0,0.0,79,0.00,,,0.00,0.0,WeatherDisplay:10.37,2013-01-31 04:12:00,
2013-01-30 20:17:00,47.5,41.6,30.25,SSE,165,0.0,0.0,80,0.00,,,0.00,0.0,WeatherDisplay:10.37,2013-01-31 04:17:00,
2013-01-30 20:22:00,47.0,41.1,30.25,SSE,165,0.0,0.0,80,0.00,,,0.00,0.0,WeatherDisplay:10.37,2013-01-31 04:22:00,
2013-01-30 20:27:00,46.7,41.2,30.25,SSE,164,0.0,0.0,81,0.00,,,0.00,0.0,WeatherDisplay:10.37,2013-01-31 04:27:00,
2013-01-30 20:32:00,46.6,41.1,30.25,SSE,164,0.0,0.0,81,0.00,,,0.00,0.0,WeatherDisplay:10.37,2013-01-31 04:32:00,
2013-01-30 20:37:00,46.3,40.8,30.25,SSE,165,0.0,0.0,81,0.00,,,0.00,0.0,WeatherDisplay:10.37,2013-01-31 04:37:00,
2013-01-30 20:42:00,46.1,40.9,30.25,SSE,165,0.0,0.0,82,0.00,,,0.00,0.0,WeatherDisplay:10.37,2013-01-31 04:42:00,
2013-01-30 20:47:00,45.9,40.7,30.25,SSE,164,0.0,0.0,82,0.00,,,0.00,0.0,WeatherDisplay:10.37,2013-01-31 04:47:00,
2013-01-30 20:52:00,45.8,40.6,30.25,SSE,165,0.0,0.0,82,0.00,,,0.00,0.0,WeatherDisplay:10.37,2013-01-31 04:52:00,
2013-01-30 20:57:00,45.8,40.9,30.25,SSE,164,0.0,0.0,83,0.00,,,0.00,0.0,WeatherDisplay:10.37,2013-01-31 04:57:00,
2013-01-30 21:02:00,45.6,40.4,30.25,SSE,164,0.0,0.0,82,0.00,,,0.00,0.0,WeatherDisplay:10.37,2013-01-31 05:02:00,
2013-01-30 21:03:00,45.5,40.3,30.25,SSE,164,0.0,0.0,82,0.00,,,0.00,0.0,WeatherDisplay:10.37,2013-01-31 05:03:00,
2013-01-30 21:05:00,45.4,40.5,30.25,SSE,165,0.0,0.0,83,0.00,,,0.00,0.0,WeatherDisplay:10.37,2013-01-31 05:05:00,
2013-01-30 21:08:00,45.2,40.3,30.25,SSE,165,0.0,0.0,83,0.00,,,0.00,0.0,WeatherDisplay:10.37,2013-01-31 05:08:00,
2013-01-30 21:13:00,45.2,40.3,30.25,SSE,165,0.0,0.0,83,0.00,,,0.00,0.0,WeatherDisplay:10.37,2013-01-31 05:13:00,
2013-01-30 21:18:00,45.1,40.2,30.25,SSE,164,0.0,0.0,83,0.00,,,0.00,0.0,WeatherDisplay:10.37,2013-01-31 05:18:00,
2013-01-30 21:23:00,45.0,40.5,30.25,SSE,165,0.0,0.0,84,0.00,,,0.00,0.0,WeatherDisplay:10.37,2013-01-31 05:23:00,
2013-01-30 21:28:00,45.0,40.5,30.25,SSE,165,0.0,0.0,84,0.00,,,0.00,0.0,WeatherDisplay:10.37,2013-01-31 05:28:00,
2013-01-30 21:33:00,44.6,39.8,30.26,SSE,165,0.0,0.0,83,0.00,,,0.00,0.0,WeatherDisplay:10.37,2013-01-31 05:33:00,
2013-01-30 21:38:00,44.6,40.1,30.26,SSE,165,0.0,0.0,84,0.00,,,0.00,0.0,WeatherDisplay:10.37,2013-01-31 05:38:00,
2013-01-30 21:43:00,44.5,40.0,30.25,SSE,164,0.0,0.0,84,0.00,,,0.00,0.0,WeatherDisplay:10.37,2013-01-31 05:43:00,
2013-01-30 21:48:00,44.7,40.5,30.25,SSE,165,0.0,0.0,85,0.00,,,0.00,0.0,WeatherDisplay:10.37,2013-01-31 05:48:00,
2013-01-30 21:53:00,44.8,40.6,30.25,SSE,165,0.0,0.0,85,0.00,,,0.00,0.0,WeatherDisplay:10.37,2013-01-31 05:53:00,
2013-01-30 21:58:00,44.8,40.3,30.25,SSE,165,0.0,0.0,84,0.00,,,0.00,0.0,WeatherDisplay:10.37,2013-01-31 05:58:00,
2013-01-30 22:03:00,44.4,39.9,30.25,SSE,165,0.0,0.0,84,0.00,,,0.00,0.0,WeatherDisplay:10.37,2013-01-31 06:03:00,
2013-01-30 22:08:00,44.2,40.0,30.25,SSE,165,0.0,0.0,85,0.00,,,0.00,0.0,WeatherDisplay:10.37,2013-01-31 06:08:00,
2013-01-30 22:13:00,44.0,39.8,30.25,SSE,165,0.0,0.0,85,0.00,,,0.00,0.0,WeatherDisplay:10.37,2013-01-31 06:13:00,
2013-01-30 22:18:00,43.9,39.7,30.25,SSE,165,0.0,0.0,85,0.00,,,0.00,0.0,WeatherDisplay:10.37,2013-01-31 06:18:00,
2013-01-30 22:23:00,44.2,40.0,30.25,SSE,165,0.2,1.1,85,0.00,,,0.00,0.0,WeatherDisplay:10.37,2013-01-31 06:23:00,
2013-01-30 22:28:00,44.5,40.3,30.25,SSE,165,0.0,0.0,85,0.00,,,0.00,0.0,WeatherDisplay:10.37,2013-01-31 06:28:00,
2013-01-30 22:33:00,44.0,39.8,30.25,SSE,164,0.0,0.0,85,0.00,,,0.00,0.0,WeatherDisplay:10.37,2013-01-31 06:33:00,
2013-01-30 22:38:00,43.6,39.4,30.25,SSE,165,0.0,0.0,85,0.00,,,0.00,0.0,WeatherDisplay:10.37,2013-01-31 06:38:00,
2013-01-30 22:43:00,43.5,39.3,30.25,SSE,164,0.2,1.1,85,0.00,,,0.00,0.0,WeatherDisplay:10.37,2013-01-31 06:43:00,
2013-01-30 22:48:00,43.5,39.3,30.25,SSE,165,0.0,0.0,85,0.00,,,0.00,0.0,WeatherDisplay:10.37,2013-01-31 06:48:00,
2013-01-30 22:53:00,43.6,39.7,30.25,SSE,165,0.4,1.1,86,0.00,,,0.00,0.0,WeatherDisplay:10.37,2013-01-31 06:53:00,
2013-01-30 22:58:00,43.7,39.8,30.25,SSE,165,0.0,0.0,86,0.00,,,0.00,0.0,WeatherDisplay:10.37,2013-01-31 06:58:00,
2013-01-30 23:03:00,43.7,39.8,30.25,SSE,165,0.0,0.0,86,0.00,,,0.00,0.0,WeatherDisplay:10.37,2013-01-31 07:03:00,
2013-01-30 23:08:00,43.4,39.2,30.26,SSE,165,0.0,0.0,85,0.00,,,0.00,0.0,WeatherDisplay:10.37,2013-01-31 07:08:00,
2013-01-30 23:13:00,43.5,39.6,30.26,SSE,165,0.0,0.0,86,0.00,,,0.00,0.0,WeatherDisplay:10.37,2013-01-31 07:13:00,
2013-01-30 23:18:00,43.6,39.7,30.26,SSE,165,0.0,0.0,86,0.00,,,0.00,0.0,WeatherDisplay:10.37,2013-01-31 07:18:00,
2013-01-30 23:23:00,43.0,39.1,30.26,SSE,164,0.0,0.0,86,0.00,,,0.00,0.0,WeatherDisplay:10.37,2013-01-31 07:23:00,
2013-01-30 23:28:00,42.9,39.0,30.26,SSE,165,0.0,0.0,86,0.00,,,0.00,0.0,WeatherDisplay:10.37,2013-01-31 07:28:00,
2013-01-30 23:33:00,42.9,39.0,30.26,SSE,164,0.0,0.0,86,0.00,,,0.00,0.0,WeatherDisplay:10.37,2013-01-31 07:33:00,
2013-01-30 23:38:00,42.7,38.8,30.26,SSE,164,0.0,0.0,86,0.00,,,0.00,0.0,WeatherDisplay:10.37,2013-01-31 07:38:00,
2013-01-30 23:44:00,42.5,38.6,30.26,SSE,165,0.0,0.0,86,0.00,,,0.00,0.0,WeatherDisplay:10.37,2013-01-31 07:44:00,
2013-01-30 23:49:00,42.5,38.6,30.26,SSE,165,0.0,0.0,86,0.00,,,0.00,0.0,WeatherDisplay:10.37,2013-01-31 07:49:00,
2013-01-30 23:54:00,42.9,39.3,30.26,SSE,165,0.0,0.0,87,0.00,,,0.00,0.0,WeatherDisplay:10.37,2013-01-31 07:54:00,
2013-01-30 23:59:00,42.9,39.3,30.26,SSE,165,0.2,1.1,87,0.00,,,0.00,0.0,WeatherDisplay:10.37,2013-01-31 07:59:00,